TimeMST,TemperatureF,Dew PointF,Humidity,Sea Level PressureIn,VisibilityMPH,Wind Direction,Wind SpeedMPH,Gust SpeedMPH,PrecipitationIn,Events,Conditions,WindDirDegrees,DateUTC
12:56 AM,48.0,28.0,46,30.09,10.0,NNW,10.4,-,N/A,,Clear,340,2012-11-23 07:56:00
1:56 AM,45.0,28.0,52,30.11,10.0,NNW,9.2,-,N/A,,Clear,330,2012-11-23 08:56:00
2:56 AM,43.0,26.1,51,30.12,10.0,Calm,Calm,-,N/A,,Clear,0,2012-11-23 09:56:00
3:56 AM,45.0,27.0,49,30.12,10.0,NE,5.8,-,N/A,,Clear,40,2012-11-23 10:56:00
4:56 AM,39.0,24.1,55,30.14,10.0,Calm,Calm,-,N/A,,Clear,0,2012-11-23 11:56:00
5:56 AM,39.0,24.1,55,30.16,10.0,NNW,6.9,-,N/A,,Clear,340,2012-11-23 12:56:00
6:56 AM,41.0,26.1,55,30.19,10.0,NNW,10.4,-,N/A,,Clear,330,2012-11-23 13:56:00
7:56 AM,44.1,27.0,51,30.21,10.0,NW,3.5,-,N/A,,Clear,310,2012-11-23 14:56:00
8:56 AM,53.1,28.9,40,30.22,10.0,NW,3.5,-,N/A,,Clear,320,2012-11-23 15:56:00
9:56 AM,68.0,28.0,22,30.19,10.0,Variable,6.9,-,N/A,,Clear,0,2012-11-23 16:56:00
10:56 AM,71.1,28.0,20,30.19,10.0,East,11.5,-,N/A,,Clear,90,2012-11-23 17:56:00
11:56 AM,73.0,28.9,20,30.15,10.0,East,15.0,27.6,N/A,,Clear,80,2012-11-23 18:56:00
12:56 PM,73.9,28.9,19,30.14,10.0,East,13.8,21.9,N/A,,Clear,100,2012-11-23 19:56:00
1:56 PM,75.0,30.9,20,30.11,10.0,East,17.3,-,N/A,,Clear,80,2012-11-23 20:56:00
2:56 PM,75.0,30.9,20,30.11,10.0,East,18.4,24.2,N/A,,Clear,90,2012-11-23 21:56:00
3:56 PM,73.0,30.0,20,30.11,10.0,East,21.9,27.6,N/A,,Clear,80,2012-11-23 22:56:00
4:56 PM,69.1,30.0,23,30.14,10.0,ENE,15.0,23.0,N/A,,Clear,70,2012-11-23 23:56:00
5:56 PM,64.9,30.0,27,30.15,10.0,East,21.9,26.5,N/A,,Clear,90,2012-11-24 00:56:00
6:56 PM,63.0,28.9,28,30.16,10.0,East,20.7,31.1,N/A,,Clear,90,2012-11-24 01:56:00
7:56 PM,61.0,28.0,29,30.18,10.0,East,24.2,31.1,N/A,,Clear,90,2012-11-24 02:56:00
8:56 PM,59.0,26.1,28,30.17,10.0,East,20.7,-,N/A,,Clear,80,2012-11-24 03:56:00
9:56 PM,57.0,24.1,28,30.17,10.0,East,12.7,-,N/A,,Clear,100,2012-11-24 04:56:00
10:56 PM,55.9,24.1,29,30.15,10.0,East,11.5,-,N/A,,Clear,90,2012-11-24 05:56:00
11:56 PM,57.0,24.1,28,30.14,10.0,East,11.5,-,N/A,,Clear,90,2012-11-24 06:56:00